| time (UTC) | temp F | wind direction | speed knots | gust knots | rain 1hr in | rain 24hr in | rain mn in | humidity % | barometer mb |
| 20260504081534 | 45 | 92 | 0.0 | 1.7 | 0.00 | 0.01 | 0.00 | 81 | 1014.0 |
| 20260504044535 | 53 | 169 | 3.5 | 6.1 | 0.00 | 0.01 | 0.01 | 64 | 1014.7 |
| 20260504043057 | 49 | 178 | 1.7 | 4.3 | 0.00 | 0.01 | 0.01 | 71 | 1015.1 |
| 20260504041535 | 49 | 263 | 0.0 | 0.9 | 0.00 | 0.01 | 0.01 | 72 | 1015.4 |
| 20260504040013 | 49 | 263 | 0.0 | 0.0 | 0.00 | 0.01 | 0.01 | 71 | 1015.4 |
| 20260504034551 | 50 | 263 | 0.0 | 0.0 | 0.00 | 0.01 | 0.01 | 70 | 1015.7 |
| 20260504033028 | 50 | 263 | 0.0 | 0.0 | 0.00 | 0.01 | 0.01 | 70 | 1015.6 |
| 20260504031600 | 51 | 263 | 0.0 | 0.0 | 0.00 | 0.01 | 0.01 | 67 | 1015.7 |
| 20260504030033 | 51 | 263 | 0.0 | 0.0 | 0.00 | 0.01 | 0.01 | 64 | 1015.8 |
| 20260504024538 | 53 | 263 | 0.0 | 0.0 | 0.00 | 0.01 | 0.01 | 61 | 1015.8 |
| 20260504023039 | 54 | 263 | 0.0 | 0.0 | 0.00 | 0.01 | 0.01 | 60 | 1015.8 |
| 20260504021520 | 56 | 263 | 0.0 | 0.0 | 0.00 | 0.01 | 0.01 | 57 | 1015.7 |
| 20260504020053 | 58 | 263 | 0.0 | 0.0 | 0.00 | 0.01 | 0.01 | 52 | 1015.4 |
| 20260504014536 | 60 | 263 | 0.0 | 3.5 | 0.00 | 0.01 | 0.01 | 47 | 1015.2 |
| 20260504013105 | 60 | 232 | 0.0 | 1.7 | 0.00 | 0.01 | 0.01 | 46 | 1014.8 |
| 20260504011532 | 61 | 242 | 0.0 | 3.5 | 0.00 | 0.01 | 0.01 | 46 | 1015.1 |
| 20260504010015 | 63 | 236 | 0.0 | 1.7 | 0.00 | 0.01 | 0.01 | 44 | 1015.2 |
| 20260504004601 | 64 | 271 | 0.9 | 3.5 | 0.00 | 0.01 | 0.01 | 42 | 1015.3 |
| 20260504003011 | 65 | 235 | 0.9 | 5.2 | 0.00 | 0.01 | 0.01 | 39 | 1015.0 |
| 20260504001557 | 66 | 227 | 1.7 | 7.8 | 0.00 | 0.01 | 0.01 | 38 | 1015.2 |
| 20260504000037 | 67 | 224 | 2.6 | 7.8 | 0.00 | 0.01 | 0.01 | 36 | 1015.2 |
| 20260503234511 | 68 | 225 | 0.9 | 5.2 | 0.00 | 0.01 | 0.01 | 36 | 1015.5 |
| 20260503233031 | 68 | 261 | 3.5 | 7.8 | 0.00 | 0.05 | 0.01 | 34 | 1015.7 |
| 20260503231508 | 69 | 281 | 4.3 | 8.7 | 0.00 | 0.05 | 0.01 | 34 | 1015.7 |
| 20260503230045 | 69 | 257 | 1.7 | 7.8 | 0.00 | 0.05 | 0.01 | 34 | 1015.7 |
| 20260503224524 | 68 | 228 | 3.5 | 9.6 | 0.00 | 0.05 | 0.01 | 33 | 1015.8 |
| 20260503223043 | 69 | 299 | 3.5 | 7.8 | 0.00 | 0.05 | 0.01 | 32 | 1016.1 |
| 20260503221524 | 69 | 294 | 4.3 | 8.7 | 0.00 | 0.05 | 0.01 | 32 | 1016.2 |
| 20260503220005 | 68 | 225 | 4.3 | 11.3 | 0.00 | 0.05 | 0.01 | 32 | 1016.4 |
| 20260503214546 | 68 | 17 | 2.6 | 7.0 | 0.00 | 0.05 | 0.01 | 33 | 1016.5 |
| 20260503213006 | 68 | 242 | 2.6 | 11.3 | 0.00 | 0.06 | 0.01 | 32 | 1016.8 |
| 20260503211542 | 68 | 281 | 3.5 | 7.8 | 0.00 | 0.06 | 0.01 | 33 | 1017.0 |
| 20260503210030 | 68 | 269 | 5.2 | 10.4 | 0.00 | 0.06 | 0.01 | 34 | 1017.5 |
| 20260503204601 | 68 | 240 | 4.3 | 10.4 | 0.00 | 0.06 | 0.01 | 34 | 1017.6 |
| 20260503204505 | 68 | 208 | 3.5 | 10.4 | 0.00 | 0.06 | 0.01 | 33 | 1017.7 |
| 20260503203028 | 67 | 275 | 2.6 | 9.6 | 0.00 | 0.06 | 0.01 | 35 | 1017.9 |
| 20260503201507 | 67 | 285 | 6.1 | 10.4 | 0.00 | 0.06 | 0.01 | 33 | 1018.3 |
| 20260503200046 | 67 | 224 | 5.2 | 9.6 | 0.00 | 0.06 | 0.01 | 32 | 1018.5 |
| 20260503194524 | 67 | 275 | 3.5 | 11.3 | 0.00 | 0.06 | 0.01 | 33 | 1018.8 |
| 20260503193044 | 66 | 256 | 1.7 | 7.0 | 0.00 | 0.06 | 0.01 | 34 | 1018.9 |
| 20260503191524 | 65 | 192 | 4.3 | 10.4 | 0.00 | 0.06 | 0.01 | 34 | 1019.2 |
| 20260503190101 | 65 | 143 | 5.2 | 9.6 | 0.00 | 0.06 | 0.01 | 36 | 1019.4 |
| 20260503190003 | 65 | 216 | 4.3 | 7.8 | 0.00 | 0.06 | 0.01 | 35 | 1019.5 |
| 20260503184554 | 64 | 321 | 4.3 | 9.6 | 0.00 | 0.06 | 0.01 | 34 | 1019.6 |
| 20260503183004 | 64 | 177 | 2.6 | 8.7 | 0.00 | 0.06 | 0.01 | 34 | 1019.8 |
| 20260503181540 | 63 | 271 | 2.6 | 11.3 | 0.00 | 0.06 | 0.01 | 38 | 1020.0 |
| 20260503180016 | 63 | 302 | 4.3 | 7.0 | 0.00 | 0.06 | 0.01 | 38 | 1020.1 |
| 20260503174607 | 62 | 150 | 3.5 | 7.8 | 0.00 | 0.06 | 0.01 | 39 | 1020.2 |
| 20260503173019 | 61 | 140 | 2.6 | 7.8 | 0.00 | 0.06 | 0.01 | 37 | 1020.6 |
| 20260503171552 | 61 | 177 | 4.3 | 7.8 | 0.00 | 0.06 | 0.01 | 38 | 1020.9 |